This is the latest recevied weather packets stored in our database for station/object NR5ON-13. If no packets are shown the sender has not sent any weather packets the latest 10 day(s).
| Time | Temp. | Humidity | Pressure | Rain* | Wind** | Luminosity | Snow |
|---|---|---|---|---|---|---|---|
| 1777830517 | 17.22° C | 27% | 1022.9 hPa | 0 mm | - | - | - |
| 1777830202 | 17.22° C | 27% | 1023 hPa | 0 mm | - | - | - |
| 1777829908 | 17.22° C | 31% | 1023 hPa | 0 mm | - | - | - |
| 1777829612 | 16.67° C | 30% | 1023.1 hPa | 0 mm | - | - | - |
| 1777829302 | 16.11° C | 31% | 1023.2 hPa | 0 mm | - | - | - |
| 1777829008 | 16.11° C | 29% | 1023.3 hPa | 0 mm | - | - | - |
| 1777828713 | 16.11° C | 31% | 1023.3 hPa | 0 mm | - | - | - |
| 1777828399 | 16.11° C | 33% | 1023.3 hPa | 0 mm | - | - | - |
| 1777828107 | 16.11° C | 31% | 1023.3 hPa | 0 mm | - | - | - |
| 1777827812 | 16.11° C | 32% | 1023.4 hPa | 0 mm | - | - | - |
| 1777827500 | 15.56° C | 32% | 1023.5 hPa | 0 mm | - | - | - |
| 1777827204 | 15.56° C | 35% | 1023.5 hPa | 0 mm | - | - | - |
| 1777826909 | 15° C | 34% | 1023.6 hPa | 0 mm | - | - | - |
| 1777826614 | 15.56° C | 32% | 1023.6 hPa | 0 mm | - | - | - |
| 1777826304 | 15° C | 32% | 1023.6 hPa | 0 mm | - | - | - |
| 1777826011 | 15° C | 35% | 1023.6 hPa | 0 mm | - | - | - |
| 1777825717 | 15° C | 39% | 1023.6 hPa | 0 mm | - | - | - |
| 1777825402 | 15° C | 39% | 1023.6 hPa | 0 mm | - | - | - |
| 1777825108 | 14.44° C | 40% | 1023.6 hPa | 0 mm | - | - | - |
| 1777824813 | 14.44° C | 43% | 1023.6 hPa | 0 mm | - | - | - |
| 1777824518 | 14.44° C | 42% | 1023.7 hPa | 0 mm | - | - | - |
| 1777824204 | 14.44° C | 42% | 1023.7 hPa | 0 mm | - | - | - |
| 1777823909 | 13.89° C | 43% | 1023.8 hPa | 0 mm | - | - | - |
| 1777823614 | 13.89° C | 43% | 1023.8 hPa | 0 mm | - | - | - |
| 1777823303 | 13.89° C | 42% | 1023.9 hPa | 0 mm | - | - | - |
* Rain latest hour (hover to see other rain measurements)
** Current wind speed in m/s (hover to see current wind gust speed)